[[{"header":{"parameterUnit":"m.s-1","parameterCategory":2,"la1":30.2991,"la2":30.254,"lo1":-89.0895,"lo2":-89.0444,"dy":0.0017,"dx":0.0017,"nx":28,"ny":28,"refTime":"2024-03-02T09:00:00:Z","depth":"0","parameterNumber":2,"parameterNumberName":"U-component_of_CURRENTS"},"data":[0,0,0,0,0,0,0,0,0,0,0,0,0,0,0,0,0,0,0,0,0,0,0,0,0,0,0,0,0,0,0,0,0,0,0,0,0,0,0,0,0,0,0,0,0,0,0,0,0,0,0,0,0,0,0,0,0,0,-0.2361,-0.2361,0,-0.2359,-0.2359,-0.2358,-0.2341,-0.2341,-0.234,-0.234,-0.2295,-0.2294,-0.2292,0,0,0,0,0,0,0,0,0,0,0,0,0,-0.2326,-0.2326,-0.2361,-0.2361,-0.2361,-0.2359,-0.2359,-0.2358,-0.2341,-0.2341,-0.234,-0.234,-0.2295,-0.2294,-0.2292,0,0,0,0,0,0,0,0,0,0,0,0,0,-0.2331,-0.2327,-0.2361,-0.2355,-0.2354,-0.2359,-0.2359,-0.2358,-0.2341,-0.2341,-0.234,-0.234,-0.2295,-0.2294,-0.2292,-0.2288,0,0,-0.2287,-0.2287,0,0,0,0,0,0,0,0,-0.2331,-0.2332,-0.2355,-0.2355,-0.2355,-0.2352,-0.233,-0.2333,-0.2341,-0.2343,-0.234,-0.234,-0.2312,-0.2309,-0.2306,-0.2285,-0.2283,-0.2287,-0.2286,-0.2286,-0.2285,0,0,0,0,0,0,0,-0.2331,-0.2332,-0.2357,-0.2356,-0.2355,-0.2344,-0.2344,-0.233,-0.2326,-0.2343,-0.2342,-0.2347,-0.2311,-0.2307,-0.2304,-0.2283,-0.2287,-0.2286,-0.2285,-0.2284,-0.2264,-0.2264,0,0,0,0,0,0,-0.2339,-0.2332,-0.2357,-0.2357,-0.2345,-0.2345,-0.2345,-0.2351,-0.2327,-0.2324,-0.2347,-0.2346,-0.231,-0.2306,-0.2303,-0.2307,-0.2286,-0.2284,-0.2283,-0.2263,-0.2264,-0.2264,0,0,0,0,0,0,-0.2338,-0.2341,-0.2357,-0.2347,-0.2349,-0.2346,-0.2353,-0.2351,-0.2348,-0.2331,-0.2327,-0.2346,-0.231,-0.2305,-0.2295,-0.2305,-0.2283,-0.2282,-0.2263,-0.2264,-0.2264,-0.2309,0,0,0,0,0,0,-0.2337,-0.2341,-0.2341,-0.2348,-0.235,-0.2367,-0.2353,-0.2351,-0.2353,-0.2351,-0.2329,-0.2324,-0.2309,-0.2298,-0.2294,-0.2302,-0.2281,-0.2262,-0.2263,-0.2264,-0.2307,-0.2311,-0.2314,0,0,0,0,0,-0.2336,-0.2342,-0.2341,-0.2344,-0.2352,-0.2368,-0.2368,-0.2363,-0.2353,-0.2358,-0.2341,-0.2325,-0.23,-0.2297,-0.2292,-0.23,-0.2262,-0.2263,-0.2264,-0.2305,-0.231,-0.2314,0,0,0,0,0,0,-0.2321,-0.2341,-0.234,-0.235,-0.2362,-0.2366,-0.2366,-0.2366,-0.2356,-0.2349,-0.2329,-0.2324,-0.2321,-0.2303,-0.2301,-0.2297,-0.2279,-0.2279,-0.2311,-0.2316,-0.232,-0.2312,-0.2279,0,0,0,0,0,-0.2321,-0.233,-0.2348,-0.2353,-0.236,-0.2363,-0.2365,-0.2367,-0.2364,-0.2359,-0.2346,-0.2329,-0.2321,-0.2313,-0.2302,-0.2297,-0.2272,-0.2299,-0.2303,-0.2306,-0.2297,-0.228,-0.2281,-0.2267,-0.2267,-0.2267,0,0,-0.2316,-0.2326,-0.2331,-0.235,-0.2353,-0.2369,-0.2363,-0.2372,-0.238,-0.2355,-0.2352,-0.2343,-0.2324,-0.2322,-0.2319,-0.2308,-0.2297,-0.2307,-0.231,-0.2299,-0.2281,-0.2282,-0.2283,-0.2268,-0.2268,-0.2268,0,0,-0.2313,-0.2321,-0.233,-0.2345,-0.2361,-0.2368,-0.2375,-0.2386,-0.2385,-0.2388,-0.2373,-0.2367,-0.2353,-0.2343,-0.2335,-0.235,-0.2321,-0.2351,-0.236,-0.2344,-0.2345,-0.2346,-0.2316,-0.2313,-0.235,-0.235,-0.235,0,-0.2307,-0.2319,-0.2334,-0.2349,-0.236,-0.2371,-0.2386,-0.2392,-0.2397,-0.2396,-0.2391,-0.2374,-0.2361,-0.2356,-0.2364,-0.2358,-0.234,-0.2347,-0.2349,-0.2349,-0.2349,-0.2318,-0.2315,-0.2352,-0.2352,-0.2351,-0.2351,0,-0.2312,-0.2326,-0.2332,-0.2356,-0.2372,-0.2385,-0.2406,-0.2415,-0.2415,-0.2419,-0.2418,-0.2403,-0.2389,-0.2392,-0.2381,-0.2377,-0.2361,-0.236,-0.2338,-0.2353,-0.232,-0.2315,-0.2355,-0.2354,-0.2354,-0.2353,0,0,-0.2284,-0.2329,-0.2327,-0.2342,-0.2377,-0.2388,-0.2409,-0.2428,-0.2433,-0.2438,-0.2437,-0.2431,-0.2422,-0.2411,-0.2401,-0.2388,-0.2373,-0.2374,-0.2372,-0.2344,-0.2328,-0.2255,-0.2243,-0.2376,-0.2376,-0.2376,-0.2306,0,-0.228,-0.2307,-0.2332,-0.2356,-0.2374,-0.24,-0.2418,-0.2437,-0.2445,-0.245,-0.2441,-0.2438,-0.2431,-0.2424,-0.2412,-0.2386,-0.2363,-0.2391,-0.2317,-0.2314,-0.2248,-0.2236,-0.2153,-0.2078,-0.2301,-0.23,-0.23,0,-0.227,-0.2291,-0.2315,-0.2359,-0.2368,-0.2384,-0.2409,-0.2429,-0.2448,-0.2454,-0.2453,-0.2449,-0.2434,-0.2425,-0.2378,-0.2397,-0.236,-0.2337,-0.2334,-0.2244,-0.2233,-0.2099,-0.2061,-0.2035,-0.2293,-0.2293,-0.2294,0,-0.2229,-0.2277,-0.2292,-0.2307,-0.2359,-0.2368,-0.2392,-0.2421,-0.2432,-0.2451,-0.2451,-0.2447,-0.2429,-0.2398,-0.235,-0.2365,-0.2288,-0.2303,-0.2199,-0.2193,-0.2093,-0.2078,-0.2016,-0.2257,-0.2257,-0.2257,-0.2257,0,-0.2208,-0.2217,-0.2273,-0.2278,-0.229,-0.2343,-0.2352,-0.2378,-0.2411,-0.2416,-0.2442,-0.2432,-0.2421,-0.2381,-0.2344,-0.2246,-0.2279,-0.2184,-0.2166,-0.2105,-0.2094,-0.2042,-0.206,-0.2254,-0.2255,-0.2256,-0.2256,0,-0.2148,-0.2189,-0.2205,-0.2256,-0.2268,-0.2272,-0.2317,-0.2331,-0.2372,-0.2377,-0.2382,-0.2406,-0.2356,-0.2324,-0.2265,-0.2218,-0.2099,-0.2103,-0.2024,-0.1997,-0.1874,-0.1898,-0.1798,-0.175,-0.1977,-0.1974,-0.1972,0,-0.2115,-0.212,-0.2164,-0.217,-0.2186,-0.2209,-0.2226,-0.2288,-0.2308,-0.235,-0.2345,-0.2321,-0.2279,-0.2168,-0.2083,-0.1985,-0.1992,-0.1858,-0.1868,-0.1836,-0.1851,-0.1871,-0.1841,-0.1756,-0.1752,-0.1749,-0.1747,0,-0.2039,-0.2057,-0.2067,-0.2086,-0.2101,-0.2119,-0.2152,-0.216,-0.2233,-0.2238,-0.2233,-0.2208,-0.212,-0.1984,-0.1869,-0.1809,-0.1807,-0.1794,-0.1784,-0.168,-0.1674,-0.1629,-0.1835,-0.1721,-0.1724,-0.1725,-0.1727,-0.1728,-0.1965,-0.1955,-0.1975,-0.1979,-0.2002,-0.2006,-0.1976,-0.203,-0.2027,-0.2006,-0.2066,-0.1986,-0.1909,-0.173,-0.1667,-0.1528,-0.1596,-0.1488,-0.1521,-0.1546,-0.149,-0.1627,-0.1483,-0.1484,-0.1485,-0.1486,-0.1486,0,-0.1865,-0.1864,-0.1871,-0.1863,-0.1841,-0.1892,-0.1904,-0.1858,-0.1809,-0.1829,-0.1789,-0.1694,-0.1557,-0.1499,-0.1361,-0.1283,-0.1269,-0.1261,-0.1283,-0.1267,-0.1392,-0.1372,-0.1169,-0.1169,-0.1169,-0.1169,-0.1169,-0.1169,-0.1808,-0.177,-0.1775,-0.169,-0.1688,-0.1609,-0.1583,-0.1544,-0.153,-0.1438,-0.1398,-0.1401,-0.1354,-0.1363,-0.1232,-0.1168,-0.1148,-0.1103,-0.1136,-0.1249,-0.1274,-0.1297,-0.1282,-0.1063,-0.1063,-0.0962,-0.0961,-0.0961]},{"header":{"parameterUnit":"m.s-1","parameterCategory":2,"la1":30.2991,"la2":30.254,"lo1":-89.0895,"lo2":-89.0444,"dy":0.0017,"dx":0.0017,"nx":28,"ny":28,"refTime":"2024-03-02T09:00:00:Z","depth":"0","parameterNumber":3,"parameterNumberName":"V-component_of_CURRENTS"},"data":[0,0,0,0,0,0,0,0,0,0,0,0,0,0,0,0,0,0,0,0,0,0,0,0,0,0,0,0,0,0,0,0,0,0,0,0,0,0,0,0,0,0,0,0,0,0,0,0,0,0,0,0,0,0,0,0,0,0,-0.0422,-0.0421,0,-0.0381,-0.0381,-0.038,-0.0356,-0.0356,-0.0356,-0.0356,-0.0279,-0.0277,-0.0275,0,0,0,0,0,0,0,0,0,0,0,0,0,-0.0443,-0.0443,-0.0422,-0.0421,-0.0421,-0.0381,-0.0381,-0.038,-0.0356,-0.0356,-0.0356,-0.0356,-0.028,-0.0277,-0.0275,0,0,0,0,0,0,0,0,0,0,0,0,0,-0.0421,-0.0443,-0.0422,-0.0404,-0.0402,-0.0381,-0.038,-0.038,-0.0356,-0.0356,-0.0356,-0.0356,-0.0281,-0.0278,-0.0275,-0.0259,0,0,-0.0266,-0.0264,0,0,0,0,0,0,0,0,-0.0422,-0.042,-0.0407,-0.0406,-0.0403,-0.0374,-0.036,-0.0338,-0.0356,-0.0373,-0.0356,-0.0356,-0.0308,-0.0303,-0.0295,-0.0255,-0.0252,-0.0266,-0.0264,-0.0262,-0.0262,0,0,0,0,0,0,0,-0.0424,-0.0422,-0.0405,-0.0407,-0.0404,-0.0386,-0.0383,-0.0355,-0.0341,-0.0372,-0.037,-0.0366,-0.0306,-0.0298,-0.0293,-0.0251,-0.0266,-0.0263,-0.0261,-0.026,-0.0185,-0.0185,0,0,0,0,0,0,-0.0431,-0.0423,-0.0407,-0.0404,-0.0413,-0.0386,-0.0383,-0.0383,-0.0342,-0.0336,-0.0366,-0.0365,-0.0303,-0.0297,-0.029,-0.0268,-0.0262,-0.026,-0.0258,-0.0185,-0.0185,-0.0185,0,0,0,0,0,0,-0.0432,-0.0431,-0.0408,-0.0413,-0.0409,-0.0386,-0.0387,-0.0382,-0.0375,-0.0338,-0.0331,-0.0364,-0.0303,-0.0294,-0.0267,-0.0265,-0.0258,-0.0256,-0.0186,-0.0185,-0.0185,-0.0224,0,0,0,0,0,0,-0.0433,-0.0431,-0.0436,-0.0413,-0.0409,-0.0402,-0.0387,-0.0382,-0.0373,-0.0371,-0.0333,-0.0326,-0.0302,-0.0272,-0.0264,-0.0261,-0.0253,-0.0186,-0.0186,-0.0185,-0.0223,-0.0225,-0.0226,0,0,0,0,0,-0.0434,-0.0443,-0.0437,-0.0434,-0.0416,-0.0402,-0.0398,-0.0381,-0.0373,-0.0373,-0.0346,-0.0327,-0.0264,-0.0269,-0.0261,-0.0256,-0.0186,-0.0186,-0.0185,-0.0222,-0.0224,-0.0226,0,0,0,0,0,0,-0.0455,-0.0441,-0.0433,-0.0438,-0.0423,-0.0398,-0.0398,-0.0384,-0.0363,-0.0361,-0.0325,-0.0315,-0.0291,-0.0267,-0.0274,-0.0233,-0.0222,-0.0219,-0.0252,-0.0254,-0.0256,-0.0268,-0.0251,0,0,0,0,0,-0.0462,-0.0466,-0.0446,-0.045,-0.0444,-0.0421,-0.0414,-0.0402,-0.038,-0.0371,-0.0343,-0.0311,-0.0282,-0.0265,-0.0238,-0.0214,-0.018,-0.0204,-0.0206,-0.0208,-0.0211,-0.0161,-0.0159,-0.0183,-0.0183,-0.0183,0,0,-0.0472,-0.0464,-0.0466,-0.0454,-0.0442,-0.0441,-0.0417,-0.041,-0.0406,-0.0364,-0.035,-0.0318,-0.0277,-0.0253,-0.024,-0.0233,-0.0181,-0.0208,-0.021,-0.0211,-0.016,-0.0158,-0.0156,-0.0183,-0.0183,-0.0183,0,0,-0.0496,-0.0485,-0.0498,-0.0489,-0.0475,-0.0457,-0.0457,-0.0434,-0.042,-0.0401,-0.0369,-0.0335,-0.0296,-0.0262,-0.0241,-0.0235,-0.0195,-0.0227,-0.0243,-0.0195,-0.0192,-0.019,-0.0136,-0.0129,-0.0226,-0.0226,-0.0226,0,-0.0508,-0.0522,-0.0499,-0.0508,-0.0503,-0.0468,-0.0478,-0.0458,-0.0428,-0.0413,-0.0404,-0.0332,-0.0299,-0.0258,-0.0257,-0.0239,-0.0205,-0.024,-0.0198,-0.0194,-0.0191,-0.0137,-0.0128,-0.0228,-0.0227,-0.0227,-0.0227,0,-0.0542,-0.0551,-0.0557,-0.0556,-0.0545,-0.0548,-0.0518,-0.0504,-0.048,-0.0454,-0.0412,-0.0361,-0.0317,-0.0299,-0.0277,-0.0237,-0.0218,-0.0209,-0.0195,-0.0191,-0.0134,-0.0124,-0.023,-0.023,-0.0229,-0.0229,0,0,-0.0574,-0.0581,-0.0585,-0.0593,-0.0572,-0.0569,-0.0556,-0.0531,-0.0518,-0.0476,-0.045,-0.0393,-0.0358,-0.0331,-0.029,-0.0247,-0.0192,-0.0224,-0.0221,-0.0176,-0.008,-0.004,-0.0025,-0.0178,-0.0177,-0.0176,-0.0046,0,-0.0609,-0.0646,-0.063,-0.0652,-0.0665,-0.0625,-0.0615,-0.0583,-0.0545,-0.0509,-0.0442,-0.0402,-0.0371,-0.0346,-0.0299,-0.0218,-0.017,-0.0228,-0.0086,-0.0081,-0.005,-0.0013,0.0004,0.0123,-0.0037,-0.0035,-0.0034,0,-0.0649,-0.0668,-0.0704,-0.0703,-0.0703,-0.0703,-0.0673,-0.0659,-0.0593,-0.0561,-0.0502,-0.0446,-0.0367,-0.0348,-0.0206,-0.0245,-0.017,-0.0108,-0.0101,-0.0045,-0.0023,0.0094,0.0147,0.0236,-0.0018,-0.0019,-0.002,0,-0.0694,-0.0716,-0.0748,-0.075,-0.0742,-0.0741,-0.0728,-0.0677,-0.0657,-0.0589,-0.056,-0.0462,-0.04,-0.0302,-0.0167,-0.0186,-0.0008,-0.0015,0.0096,0.01,0.0153,0.0159,0.0305,0.008,0.008,0.008,0.0079,0,-0.074,-0.0763,-0.0775,-0.0793,-0.0817,-0.0788,-0.0789,-0.076,-0.0704,-0.0669,-0.0591,-0.0529,-0.0387,-0.0265,-0.0163,0.0011,0.0003,0.0106,0.014,0.0141,0.0144,0.0254,0.0284,0.0085,0.0084,0.0083,0.0082,0,-0.0785,-0.0795,-0.083,-0.0839,-0.0842,-0.0858,-0.0838,-0.083,-0.0775,-0.0724,-0.0701,-0.0561,-0.0394,-0.0244,-0.0056,0.0031,0.0248,0.0236,0.0233,0.0263,0.0431,0.0457,0.0641,0.0708,0.0377,0.0379,0.038,0,-0.0812,-0.0839,-0.0873,-0.0898,-0.0905,-0.092,-0.0925,-0.0876,-0.0852,-0.0732,-0.0702,-0.0532,-0.0387,-0.0094,0.009,0.0295,0.0353,0.0416,0.038,0.046,0.0515,0.0525,0.0568,0.0443,0.0445,0.0446,0.0448,0,-0.0857,-0.087,-0.09,-0.0958,-0.098,-0.0996,-0.099,-0.0974,-0.0894,-0.0823,-0.0676,-0.0547,-0.0255,0.0011,0.0265,0.0372,0.0487,0.0454,0.0544,0.059,0.0606,0.0679,0.0338,0.0462,0.046,0.0459,0.0458,0.0458,-0.0882,-0.0919,-0.0962,-0.1009,-0.1039,-0.1052,-0.1044,-0.0998,-0.0931,-0.078,-0.0659,-0.0431,-0.0079,0.0297,0.0427,0.0666,0.0632,0.0717,0.0748,0.0756,0.0806,0.0497,0.0648,0.0648,0.0648,0.0647,0.0647,0,-0.0913,-0.0955,-0.1009,-0.1059,-0.1089,-0.1093,-0.1068,-0.1017,-0.0911,-0.0741,-0.0566,-0.0157,0.0181,0.0479,0.0827,0.0948,0.0964,0.0996,0.101,0.1045,0.0787,0.0772,0.0949,0.0949,0.0949,0.0949,0.0948,0.0948,-0.093,-0.0994,-0.1025,-0.1085,-0.1112,-0.1112,-0.1085,-0.0978,-0.0838,-0.0534,-0.0276,-0.007,0.0343,0.0885,0.1186,0.12,0.1302,0.1283,0.1352,0.1155,0.1131,0.1107,0.1102,0.1345,0.1345,0.1593,0.1595,0.1597]}],[{"header":{"parameterUnit":"m.s-1","parameterCategory":2,"la1":30.2991,"la2":30.254,"lo1":-89.0895,"lo2":-89.0444,"dy":0.0017,"dx":0.0017,"nx":28,"ny":28,"refTime":"2024-03-02T09:00:00:Z","depth":"2","parameterNumber":2,"parameterNumberName":"U-component_of_CURRENTS"},"data":[0,0,0,0,0,0,0,0,0,0,0,0,0,0,0,0,0,0,0,0,0,0,0,0,0,0,0,0,0,0,0,0,0,0,0,0,0,0,0,0,0,0,0,0,0,0,0,0,0,0,0,0,0,0,0,0,0,0,-0.1949,-0.1949,0,-0.1947,-0.1947,-0.1947,-0.1938,-0.1938,-0.1938,-0.1938,-0.1909,-0.1908,-0.1908,0,0,0,0,0,0,0,0,0,0,0,0,0,-0.1922,-0.1923,-0.1949,-0.1949,-0.195,-0.1947,-0.1947,-0.1947,-0.1938,-0.1938,-0.1938,-0.1938,-0.1909,-0.1908,-0.1908,0,0,0,0,0,0,0,0,0,0,0,0,0,-0.1926,-0.1923,-0.1949,-0.1947,-0.1947,-0.1947,-0.1947,-0.1947,-0.1938,-0.1938,-0.1938,-0.1938,-0.191,-0.1909,-0.1907,-0.19,0,0,-0.1904,-0.1903,0,0,0,0,0,0,0,0,-0.1926,-0.1927,-0.1947,-0.1947,-0.1947,-0.1945,-0.1927,-0.1931,-0.1938,-0.1938,-0.1938,-0.1938,-0.192,-0.1918,-0.1915,-0.1898,-0.1897,-0.1904,-0.1903,-0.1903,-0.1902,0,0,0,0,0,0,0,-0.1926,-0.1927,-0.1946,-0.1947,-0.1947,-0.1938,-0.1939,-0.1928,-0.1927,-0.1938,-0.1938,-0.1942,-0.192,-0.1916,-0.1914,-0.1897,-0.1904,-0.1903,-0.1902,-0.1902,-0.1889,-0.1889,0,0,0,0,0,0,-0.1932,-0.1927,-0.1946,-0.1946,-0.1939,-0.1939,-0.1939,-0.1943,-0.1927,-0.1926,-0.1942,-0.1942,-0.1918,-0.1915,-0.1913,-0.1925,-0.1903,-0.1901,-0.1901,-0.1889,-0.1889,-0.1889,0,0,0,0,0,0,-0.1932,-0.1934,-0.1946,-0.1938,-0.1939,-0.194,-0.1944,-0.1943,-0.1945,-0.1931,-0.1929,-0.1946,-0.1918,-0.1914,-0.1911,-0.1923,-0.1901,-0.19,-0.1888,-0.1889,-0.1889,-0.1936,0,0,0,0,0,0,-0.1931,-0.1934,-0.1936,-0.1939,-0.194,-0.1956,-0.1944,-0.1943,-0.1949,-0.1948,-0.1933,-0.1931,-0.1917,-0.1913,-0.191,-0.1921,-0.1899,-0.1888,-0.1888,-0.1889,-0.1934,-0.1938,-0.1941,0,0,0,0,0,-0.193,-0.1936,-0.1936,-0.1938,-0.1944,-0.1957,-0.1957,-0.1955,-0.1949,-0.1955,-0.1944,-0.1931,-0.1915,-0.1912,-0.1908,-0.192,-0.1887,-0.1888,-0.1889,-0.1932,-0.1937,-0.1941,0,0,0,0,0,0,-0.1922,-0.1936,-0.1936,-0.1944,-0.1954,-0.1957,-0.1959,-0.1959,-0.1955,-0.1951,-0.1935,-0.1932,-0.1934,-0.1919,-0.1916,-0.1918,-0.1899,-0.1899,-0.1933,-0.1937,-0.1941,-0.1934,-0.1898,0,0,0,0,0,-0.1922,-0.193,-0.1944,-0.1949,-0.1955,-0.1958,-0.1961,-0.1964,-0.1962,-0.196,-0.1952,-0.194,-0.1933,-0.1929,-0.192,-0.192,-0.1896,-0.1924,-0.1928,-0.1931,-0.1923,-0.1906,-0.1907,-0.1892,-0.1892,-0.1892,0,0,-0.192,-0.1928,-0.1932,-0.1948,-0.1951,-0.1965,-0.1959,-0.197,-0.1979,-0.1957,-0.1962,-0.1954,-0.1936,-0.1939,-0.1938,-0.1928,-0.1924,-0.1932,-0.1936,-0.1925,-0.1907,-0.1908,-0.1909,-0.1893,-0.1893,-0.1893,0,0,-0.1922,-0.1928,-0.1937,-0.195,-0.1965,-0.197,-0.1978,-0.1988,-0.1989,-0.1996,-0.1983,-0.1979,-0.1971,-0.1961,-0.1955,-0.1971,-0.1945,-0.1974,-0.1986,-0.1971,-0.1972,-0.1972,-0.1945,-0.1943,-0.1975,-0.1975,-0.1975,0,-0.192,-0.193,-0.1942,-0.1956,-0.1966,-0.1976,-0.199,-0.1997,-0.2005,-0.2006,-0.2003,-0.1991,-0.1979,-0.1976,-0.1984,-0.1979,-0.1963,-0.1973,-0.1976,-0.1976,-0.1975,-0.1948,-0.1945,-0.1977,-0.1977,-0.1977,-0.1976,0,-0.1927,-0.1941,-0.1948,-0.1969,-0.1984,-0.1997,-0.2015,-0.2026,-0.203,-0.2034,-0.2037,-0.2022,-0.2012,-0.2015,-0.2004,-0.2001,-0.1988,-0.1985,-0.1965,-0.198,-0.195,-0.1946,-0.198,-0.198,-0.1979,-0.1978,0,0,-0.1907,-0.1947,-0.1946,-0.196,-0.1991,-0.2002,-0.2025,-0.2042,-0.2051,-0.2058,-0.206,-0.2055,-0.2048,-0.2039,-0.2029,-0.2015,-0.2003,-0.2002,-0.2,-0.1977,-0.1962,-0.1895,-0.1883,-0.2006,-0.2005,-0.2005,-0.1942,0,-0.1906,-0.1932,-0.1953,-0.1978,-0.1996,-0.2019,-0.2039,-0.2057,-0.2068,-0.2075,-0.2065,-0.2066,-0.2059,-0.2056,-0.2043,-0.2014,-0.1994,-0.2019,-0.1949,-0.1946,-0.1886,-0.1877,-0.1758,-0.1687,-0.1938,-0.1937,-0.1937,0,-0.19,-0.1919,-0.1944,-0.1985,-0.1994,-0.2012,-0.2039,-0.2059,-0.2079,-0.2086,-0.2088,-0.2085,-0.2071,-0.2061,-0.2014,-0.2034,-0.1998,-0.1972,-0.1969,-0.1883,-0.1871,-0.1712,-0.167,-0.193,-0.193,-0.1931,-0.1931,0,-0.1866,-0.191,-0.1927,-0.1941,-0.199,-0.2002,-0.2026,-0.2056,-0.2069,-0.209,-0.2094,-0.2089,-0.2073,-0.2042,-0.1994,-0.2007,-0.1931,-0.1942,-0.1843,-0.1838,-0.1707,-0.1691,-0.1896,-0.1896,-0.1897,-0.1897,-0.1897,0,-0.1848,-0.1859,-0.1913,-0.1919,-0.1936,-0.1985,-0.2,-0.2025,-0.2058,-0.2062,-0.2092,-0.208,-0.2068,-0.2029,-0.1991,-0.1895,-0.1926,-0.1831,-0.1813,-0.172,-0.1706,-0.1895,-0.1896,-0.1894,-0.1895,-0.1895,-0.1896,0,-0.1796,-0.1835,-0.1855,-0.1906,-0.1918,-0.1927,-0.1972,-0.1987,-0.2031,-0.2035,-0.2042,-0.2062,-0.2012,-0.1983,-0.1919,-0.1873,-0.1802,-0.1759,-0.1645,-0.1614,-0.1722,-0.1726,-0.1645,-0.1642,-0.164,-0.1638,-0.1636,0,-0.1768,-0.1776,-0.1822,-0.1831,-0.1849,-0.1875,-0.1892,-0.1952,-0.1969,-0.2009,-0.2001,-0.198,-0.1932,-0.1824,-0.1742,-0.1648,-0.1712,-0.149,-0.1489,-0.1703,-0.1695,-0.1703,-0.171,-0.1336,-0.1332,-0.1329,-0.1326,0,-0.1703,-0.1723,-0.1734,-0.1756,-0.1774,-0.1791,-0.1823,-0.1829,-0.1894,-0.1899,-0.1884,-0.1854,-0.177,-0.1614,-0.151,-0.1448,-0.1501,-0.1418,-0.1656,-0.1424,-0.1408,-0.1402,-0.1419,-0.1296,-0.1299,-0.1301,-0.1303,-0.1304,-0.1639,-0.1633,-0.1652,-0.1659,-0.1683,-0.1683,-0.1651,-0.1694,-0.1685,-0.1653,-0.1708,-0.1606,-0.1581,-0.1344,-0.1255,-0.1185,-0.129,-0.1234,-0.1246,-0.1261,-0.1242,-0.1223,-0.1072,-0.1074,-0.1075,-0.1076,-0.1077,0,-0.1548,-0.1548,-0.1556,-0.155,-0.1527,-0.1578,-0.1579,-0.1523,-0.1461,-0.1465,-0.1416,-0.1236,-0.1129,-0.1104,-0.0948,-0.0913,-0.0923,-0.0877,-0.0895,-0.0925,-0.0951,-0.0918,-0.0661,-0.066,-0.0659,-0.0658,0,0,-0.1498,-0.1461,-0.1462,-0.1379,-0.138,-0.1297,-0.1266,-0.1207,-0.1177,-0.1068,-0.1009,-0.1059,-0.1079,-0.0871,-0.0821,-0.0717,-0.0817,-0.0681,-0.1016,-0.1068,-0.1093,-0.1156,-0.1138,0,0,0,0,0]},{"header":{"parameterUnit":"m.s-1","parameterCategory":2,"la1":30.2991,"la2":30.254,"lo1":-89.0895,"lo2":-89.0444,"dy":0.0017,"dx":0.0017,"nx":28,"ny":28,"refTime":"2024-03-02T09:00:00:Z","depth":"2","parameterNumber":3,"parameterNumberName":"V-component_of_CURRENTS"},"data":[0,0,0,0,0,0,0,0,0,0,0,0,0,0,0,0,0,0,0,0,0,0,0,0,0,0,0,0,0,0,0,0,0,0,0,0,0,0,0,0,0,0,0,0,0,0,0,0,0,0,0,0,0,0,0,0,0,0,-0.0413,-0.0412,0,-0.0379,-0.0378,-0.0378,-0.0359,-0.0359,-0.0359,-0.0359,-0.0296,-0.0295,-0.0293,0,0,0,0,0,0,0,0,0,0,0,0,0,-0.0428,-0.0428,-0.0413,-0.0412,-0.0412,-0.0379,-0.0378,-0.0378,-0.0359,-0.0359,-0.0359,-0.0359,-0.0297,-0.0295,-0.0293,0,0,0,0,0,0,0,0,0,0,0,0,0,-0.0411,-0.0428,-0.0413,-0.0399,-0.0397,-0.0379,-0.0378,-0.0378,-0.0359,-0.0359,-0.0359,-0.0359,-0.0297,-0.0295,-0.0293,-0.0279,0,0,-0.0285,-0.0284,0,0,0,0,0,0,0,0,-0.0412,-0.041,-0.0401,-0.04,-0.0398,-0.0373,-0.036,-0.0343,-0.0359,-0.0373,-0.0359,-0.0359,-0.0319,-0.0315,-0.0309,-0.0276,-0.0273,-0.0285,-0.0283,-0.0282,-0.0282,0,0,0,0,0,0,0,-0.0413,-0.0411,-0.0399,-0.0401,-0.0399,-0.0382,-0.038,-0.0357,-0.0347,-0.0372,-0.0371,-0.0367,-0.0318,-0.0312,-0.0307,-0.0272,-0.0285,-0.0283,-0.0281,-0.028,-0.0216,-0.0216,0,0,0,0,0,0,-0.0419,-0.0413,-0.04,-0.0398,-0.0405,-0.0382,-0.038,-0.0381,-0.0347,-0.0343,-0.0367,-0.0366,-0.0316,-0.031,-0.0305,-0.0284,-0.0282,-0.028,-0.0279,-0.0216,-0.0216,-0.0216,0,0,0,0,0,0,-0.042,-0.0418,-0.0402,-0.0404,-0.0401,-0.0382,-0.0384,-0.038,-0.0375,-0.0344,-0.0338,-0.0365,-0.0316,-0.0309,-0.0286,-0.0281,-0.0279,-0.0277,-0.0217,-0.0216,-0.0216,-0.0242,0,0,0,0,0,0,-0.042,-0.0419,-0.0424,-0.0405,-0.0401,-0.0396,-0.0384,-0.038,-0.0373,-0.0371,-0.034,-0.0335,-0.0315,-0.029,-0.0283,-0.0278,-0.0275,-0.0217,-0.0217,-0.0216,-0.0242,-0.0243,-0.0244,0,0,0,0,0,-0.0421,-0.043,-0.0424,-0.0423,-0.0408,-0.0396,-0.0393,-0.0379,-0.0373,-0.0373,-0.035,-0.0336,-0.0282,-0.0288,-0.028,-0.0274,-0.0217,-0.0217,-0.0216,-0.0241,-0.0243,-0.0244,0,0,0,0,0,0,-0.0439,-0.0428,-0.0422,-0.0427,-0.0414,-0.0393,-0.0393,-0.0381,-0.0364,-0.0363,-0.0333,-0.0325,-0.0304,-0.0285,-0.0292,-0.0254,-0.0247,-0.0245,-0.0268,-0.027,-0.0271,-0.0279,-0.0273,0,0,0,0,0,-0.0446,-0.045,-0.0433,-0.0437,-0.0432,-0.0413,-0.0407,-0.0397,-0.0378,-0.0371,-0.0348,-0.0321,-0.0295,-0.0281,-0.0258,-0.0237,-0.0209,-0.0228,-0.0229,-0.023,-0.0232,-0.0185,-0.0182,-0.0214,-0.0214,-0.0214,0,0,-0.0454,-0.0448,-0.0451,-0.0441,-0.043,-0.0428,-0.0409,-0.0403,-0.0398,-0.0366,-0.0353,-0.0326,-0.0291,-0.0269,-0.0257,-0.0253,-0.0204,-0.0229,-0.023,-0.0231,-0.0184,-0.0181,-0.0178,-0.0214,-0.0214,-0.0214,0,0,-0.0474,-0.0467,-0.0478,-0.047,-0.0457,-0.0443,-0.0443,-0.0422,-0.0411,-0.0394,-0.0367,-0.0335,-0.0304,-0.0272,-0.0253,-0.0245,-0.0214,-0.024,-0.0249,-0.0205,-0.0202,-0.0199,-0.0155,-0.0148,-0.0238,-0.0239,-0.0239,0,-0.0484,-0.0496,-0.0478,-0.0484,-0.048,-0.0452,-0.0458,-0.0441,-0.0415,-0.0401,-0.0395,-0.0332,-0.0303,-0.0263,-0.0261,-0.0247,-0.022,-0.0249,-0.0206,-0.0203,-0.0199,-0.0155,-0.0147,-0.024,-0.024,-0.0239,-0.0239,0,-0.0511,-0.0519,-0.0524,-0.0522,-0.0513,-0.0514,-0.0487,-0.0475,-0.0456,-0.0432,-0.0394,-0.0349,-0.031,-0.0294,-0.0276,-0.0235,-0.0223,-0.0215,-0.0205,-0.0198,-0.0151,-0.0142,-0.0241,-0.0241,-0.0241,-0.024,0,0,-0.0538,-0.0543,-0.0546,-0.0553,-0.0534,-0.0531,-0.0517,-0.0494,-0.0482,-0.0445,-0.042,-0.0367,-0.0337,-0.0313,-0.0277,-0.0237,-0.0186,-0.0221,-0.0218,-0.0181,-0.0087,-0.0065,-0.0052,-0.0173,-0.0172,-0.0171,-0.0063,0,-0.0566,-0.0595,-0.0581,-0.0598,-0.0608,-0.0574,-0.0563,-0.0535,-0.0502,-0.047,-0.0408,-0.0374,-0.0345,-0.0325,-0.0278,-0.021,-0.0165,-0.0216,-0.0097,-0.0093,-0.0077,-0.0042,-0.0062,0.0033,-0.0055,-0.0053,-0.0052,0,-0.0597,-0.0613,-0.0642,-0.064,-0.064,-0.0639,-0.0614,-0.0599,-0.054,-0.0512,-0.0458,-0.041,-0.0336,-0.032,-0.0192,-0.0228,-0.0163,-0.0109,-0.0104,-0.0068,-0.0054,0.0012,0.0053,-0.0037,-0.0038,-0.0039,-0.004,0,-0.0636,-0.0652,-0.0679,-0.068,-0.0672,-0.0672,-0.0661,-0.0616,-0.0599,-0.0537,-0.0514,-0.0421,-0.037,-0.0279,-0.0164,-0.0178,-0.0024,-0.0026,0.0059,0.0062,0.0076,0.0078,0.0062,0.0062,0.0062,0.0061,0.0061,0,-0.0673,-0.0693,-0.0703,-0.0719,-0.0741,-0.0714,-0.0717,-0.0691,-0.0643,-0.0616,-0.054,-0.049,-0.0359,-0.0255,-0.0161,-0.0015,-0.0015,0.0069,0.0096,0.0067,0.0066,0.0025,0.002,0.0065,0.0064,0.0064,0.0063,0,-0.0712,-0.072,-0.0751,-0.0759,-0.0763,-0.0779,-0.0766,-0.0761,-0.0711,-0.0672,-0.0653,-0.0529,-0.0386,-0.0251,-0.0084,-0.0005,0.0124,0.0172,0.013,0.015,0.0178,0.017,0.0282,0.0284,0.0285,0.0286,0.0287,0,-0.0735,-0.0758,-0.079,-0.0815,-0.0822,-0.0839,-0.0847,-0.0805,-0.0788,-0.0689,-0.0667,-0.0524,-0.0404,-0.0148,0.0015,0.0197,0.0184,0.0272,0.0244,0.0188,0.0203,0.0192,0.0182,0.0257,0.0258,0.0258,0.0259,0,-0.0774,-0.0787,-0.0813,-0.0871,-0.0895,-0.0914,-0.0914,-0.0905,-0.084,-0.0784,-0.0668,-0.0563,-0.0313,-0.0098,0.0126,0.0219,0.024,0.029,0.0263,0.0197,0.0172,0.0184,0.0174,0.0264,0.0264,0.0263,0.0263,0.0263,-0.0797,-0.0831,-0.0873,-0.092,-0.0952,-0.0972,-0.097,-0.0938,-0.0891,-0.0771,-0.0675,-0.0486,-0.0293,0.0047,0.02,0.0331,0.0317,0.0343,0.0339,0.0334,0.0304,0.0283,0.0391,0.0391,0.0391,0.0391,0.0392,0,-0.0826,-0.0866,-0.0919,-0.0971,-0.1005,-0.1011,-0.0999,-0.096,-0.0883,-0.0748,-0.0611,-0.0376,-0.014,0.0058,0.0278,0.0402,0.0376,0.0411,0.0356,0.035,0.0345,0.0313,0.0403,0.0404,0.0404,0.0405,0,0,-0.0843,-0.0903,-0.0933,-0.1,-0.1031,-0.1041,-0.1023,-0.094,-0.0827,-0.0666,-0.0516,-0.0343,-0.0107,0.0052,0.0204,0.032,0.0299,0.0321,0.0297,0.0207,0.0201,0.029,0.0232,0,0,0,0,0]}],[{"header":{"parameterUnit":"m.s-1","parameterCategory":2,"la1":30.2991,"la2":30.254,"lo1":-89.0895,"lo2":-89.0444,"dy":0.0017,"dx":0.0017,"nx":28,"ny":28,"refTime":"2024-03-02T09:00:00:Z","depth":"4","parameterNumber":2,"parameterNumberName":"U-component_of_CURRENTS"},"data":[0,0,0,0,0,0,0,0,0,0,0,0,0,0,0,0,0,0,0,0,0,0,0,0,0,0,0,0,0,0,0,0,0,0,0,0,0,0,0,0,0,0,0,0,0,0,0,0,0,0,0,0,0,0,0,0,0,0,-0.1329,-0.1329,0,-0.1359,-0.1359,-0.1359,-0.1392,-0.1392,-0.1393,-0.1393,-0.1426,-0.1426,-0.1426,0,0,0,0,0,0,0,0,0,0,0,0,0,-0.1282,-0.1282,-0.1329,-0.1329,-0.133,-0.1359,-0.1359,-0.1359,-0.1392,-0.1392,-0.1393,-0.1394,-0.1426,-0.1426,-0.1426,0,0,0,0,0,0,0,0,0,0,0,0,0,-0.1304,-0.1282,-0.1329,-0.1351,-0.1353,-0.1359,-0.1359,-0.1359,-0.1391,-0.1392,-0.1393,-0.1394,-0.1426,-0.1426,-0.1426,-0.141,0,0,-0.1428,-0.1428,0,0,0,0,0,0,0,0,-0.1303,-0.1306,-0.1347,-0.1349,-0.1352,-0.1374,-0.1354,-0.1377,-0.1391,-0.1375,-0.1394,-0.1395,-0.1409,-0.1411,-0.1412,-0.1411,-0.1413,-0.1428,-0.1428,-0.1428,-0.1428,0,0,0,0,0,0,0,-0.1301,-0.1304,-0.1339,-0.1347,-0.1351,-0.1353,-0.1357,-0.1358,-0.1385,-0.1376,-0.1379,-0.1385,-0.141,-0.1411,-0.1413,-0.1413,-0.1428,-0.1428,-0.1428,-0.1428,-0.1464,-0.1464,0,0,0,0,0,0,-0.1301,-0.1303,-0.1338,-0.134,-0.1331,-0.1353,-0.1358,-0.1364,-0.1385,-0.139,-0.1384,-0.1387,-0.141,-0.1412,-0.1414,-0.1461,-0.1428,-0.1428,-0.1429,-0.1463,-0.1464,-0.1465,0,0,0,0,0,0,-0.13,-0.1304,-0.1337,-0.1323,-0.1328,-0.1354,-0.136,-0.1365,-0.1392,-0.1391,-0.1396,-0.1411,-0.1411,-0.1414,-0.1438,-0.146,-0.1429,-0.1429,-0.1462,-0.1463,-0.1464,-0.1513,0,0,0,0,0,0,-0.1298,-0.1303,-0.1318,-0.1323,-0.1329,-0.1359,-0.136,-0.1365,-0.1394,-0.1398,-0.1415,-0.1418,-0.1412,-0.1437,-0.1438,-0.146,-0.1429,-0.1461,-0.1463,-0.1464,-0.151,-0.1515,-0.152,0,0,0,0,0,-0.1297,-0.131,-0.1318,-0.1323,-0.1344,-0.136,-0.1364,-0.1383,-0.1394,-0.1411,-0.1422,-0.1418,-0.1446,-0.1438,-0.1439,-0.1462,-0.1461,-0.1462,-0.1464,-0.1508,-0.1514,-0.1519,0,0,0,0,0,0,-0.1298,-0.1315,-0.1324,-0.1343,-0.136,-0.1367,-0.1386,-0.1397,-0.1418,-0.1429,-0.1427,-0.143,-0.1459,-0.1452,-0.1443,-0.1475,-0.1453,-0.1454,-0.1486,-0.1492,-0.1496,-0.1489,-0.143,0,0,0,0,0,-0.1303,-0.1321,-0.1335,-0.1353,-0.1364,-0.1379,-0.1392,-0.1406,-0.142,-0.1432,-0.1445,-0.1454,-0.146,-0.1471,-0.1475,-0.1492,-0.147,-0.1507,-0.1512,-0.1516,-0.151,-0.1496,-0.1499,-0.147,-0.147,-0.147,0,0,-0.131,-0.1321,-0.1333,-0.1355,-0.137,-0.1389,-0.139,-0.1418,-0.1439,-0.1431,-0.147,-0.1473,-0.1468,-0.149,-0.1502,-0.1491,-0.1513,-0.1518,-0.1521,-0.1513,-0.1498,-0.1501,-0.1503,-0.1471,-0.1471,-0.147,0,0,-0.1323,-0.1342,-0.1359,-0.1376,-0.1404,-0.1413,-0.1427,-0.1451,-0.147,-0.1499,-0.1498,-0.1513,-0.1532,-0.1529,-0.1528,-0.1559,-0.1538,-0.1569,-0.159,-0.1577,-0.1579,-0.1581,-0.1558,-0.1557,-0.1572,-0.1572,-0.1573,0,-0.1334,-0.1352,-0.1368,-0.1387,-0.1405,-0.1427,-0.1449,-0.1468,-0.1499,-0.1512,-0.1522,-0.1543,-0.1545,-0.1555,-0.1569,-0.1569,-0.1556,-0.1571,-0.1583,-0.1584,-0.1584,-0.1561,-0.1559,-0.1575,-0.1575,-0.1574,-0.1574,0,-0.1348,-0.1375,-0.1388,-0.1419,-0.1441,-0.1466,-0.149,-0.1519,-0.1545,-0.1559,-0.1589,-0.1588,-0.1599,-0.1606,-0.1599,-0.161,-0.1597,-0.159,-0.1568,-0.159,-0.1564,-0.1561,-0.1579,-0.1578,-0.1577,-0.1576,0,0,-0.1336,-0.1389,-0.1395,-0.1418,-0.1461,-0.1477,-0.1517,-0.1548,-0.1573,-0.1604,-0.1625,-0.1641,-0.1645,-0.1643,-0.1639,-0.163,-0.1628,-0.1619,-0.1618,-0.1595,-0.1597,-0.1495,-0.1482,-0.163,-0.1629,-0.1629,-0.1577,0,-0.1344,-0.1383,-0.1409,-0.1454,-0.1476,-0.1512,-0.1544,-0.1578,-0.1607,-0.1634,-0.1639,-0.166,-0.1658,-0.1668,-0.1661,-0.1637,-0.1624,-0.1643,-0.1579,-0.1576,-0.1482,-0.1476,-0.1629,-0.1575,-0.1574,-0.1573,-0.1573,0,-0.134,-0.1369,-0.1414,-0.1471,-0.1485,-0.1518,-0.1568,-0.16,-0.1639,-0.1661,-0.1682,-0.1689,-0.1691,-0.1683,-0.165,-0.1666,-0.1635,-0.1611,-0.1608,-0.1491,-0.1469,-0.1546,-0.1568,-0.1568,-0.1569,-0.1569,-0.1569,0,-0.1305,-0.1369,-0.1406,-0.1427,-0.1494,-0.1525,-0.1562,-0.1611,-0.1634,-0.1679,-0.1694,-0.1705,-0.1704,-0.1679,-0.1639,-0.165,-0.1585,-0.1592,-0.1466,-0.1459,-0.1547,-0.1546,-0.1556,-0.1556,-0.1556,-0.1556,-0.1556,0,-0.1284,-0.1316,-0.14,-0.1416,-0.1459,-0.1517,-0.156,-0.1597,-0.1646,-0.1658,-0.1706,-0.1696,-0.1704,-0.1672,-0.1638,-0.1533,-0.1583,-0.1456,-0.1433,-0.1569,-0.1571,-0.1545,-0.1544,-0.1554,-0.1554,-0.1555,-0.1555,0,-0.123,-0.1288,-0.1334,-0.1417,-0.1444,-0.1474,-0.1549,-0.1572,-0.1634,-0.1647,-0.1662,-0.1688,-0.1641,-0.1626,-0.157,-0.151,-0.1436,-0.1387,-0.1523,-0.1512,-0.1322,-0.1325,-0.1241,-0.1237,-0.1233,-0.123,-0.1228,0,-0.12,-0.1223,-0.1317,-0.1344,-0.1385,-0.1442,-0.1473,-0.1549,-0.1566,-0.1616,-0.1603,-0.1596,-0.1593,-0.1425,-0.1432,-0.1348,-0.133,-0.129,-0.1311,-0.13,-0.1287,-0.1296,-0.1303,-0.1222,-0.1221,-0.122,-0.1219,0,-0.1137,-0.1186,-0.122,-0.1276,-0.1322,-0.1357,-0.1407,-0.1405,-0.1476,-0.1551,-0.1491,-0.1451,-0.139,-0.1337,-0.1279,-0.1225,-0.1318,-0.1253,-0.126,-0.128,-0.1276,-0.1269,-0.128,-0.1207,-0.1209,-0.121,-0.1211,0,-0.1087,-0.1097,-0.1151,-0.1184,-0.124,-0.1242,-0.1285,-0.129,-0.131,-0.1376,-0.1346,-0.1338,-0.1369,-0.127,-0.1216,-0.1155,-0.1138,-0.1102,-0.1117,-0.1131,-0.1117,-0.1098,-0.0939,0,0,0,0,0,-0.1026,-0.1022,-0.1052,-0.1075,-0.1127,-0.115,-0.1222,-0.1268,-0.1336,-0.1258,-0.1299,-0.1237,-0.1155,-0.1153,-0.1061,-0.1161,-0.1143,-0.105,-0.1112,-0.1139,-0.1154,-0.1148,0,0,0,0,0,0,-0.0984,-0.1007,-0.1011,-0.0968,-0.0965,-0.0998,-0.1037,-0.1092,-0.1056,-0.1135,-0.1092,-0.1155,-0.1089,-0.1174,-0.1029,-0.1029,-0.104,-0.1059,-0.1055,-0.1132,-0.1144,-0.1156,-0.1155,0,0,0,0,0]},{"header":{"parameterUnit":"m.s-1","parameterCategory":2,"la1":30.2991,"la2":30.254,"lo1":-89.0895,"lo2":-89.0444,"dy":0.0017,"dx":0.0017,"nx":28,"ny":28,"refTime":"2024-03-02T09:00:00:Z","depth":"4","parameterNumber":3,"parameterNumberName":"V-component_of_CURRENTS"},"data":[0,0,0,0,0,0,0,0,0,0,0,0,0,0,0,0,0,0,0,0,0,0,0,0,0,0,0,0,0,0,0,0,0,0,0,0,0,0,0,0,0,0,0,0,0,0,0,0,0,0,0,0,0,0,0,0,0,0,-0.0308,-0.0308,0,-0.0291,-0.0291,-0.0291,-0.0286,-0.0286,-0.0286,-0.0286,-0.0252,-0.0251,-0.025,0,0,0,0,0,0,0,0,0,0,0,0,0,-0.0309,-0.0309,-0.0308,-0.0308,-0.0308,-0.0291,-0.0291,-0.0291,-0.0286,-0.0286,-0.0286,-0.0286,-0.0253,-0.0252,-0.025,0,0,0,0,0,0,0,0,0,0,0,0,0,-0.0302,-0.0309,-0.0308,-0.0303,-0.0303,-0.0291,-0.0291,-0.0291,-0.0286,-0.0286,-0.0286,-0.0287,-0.0253,-0.0252,-0.025,-0.0238,0,0,-0.0246,-0.0245,0,0,0,0,0,0,0,0,-0.0303,-0.0302,-0.0304,-0.0304,-0.0303,-0.0291,-0.0279,-0.0272,-0.0286,-0.0292,-0.0286,-0.0287,-0.0264,-0.0261,-0.0258,-0.0237,-0.0235,-0.0246,-0.0245,-0.0244,-0.0244,0,0,0,0,0,0,0,-0.0303,-0.0303,-0.0301,-0.0304,-0.0303,-0.0293,-0.0292,-0.0278,-0.0277,-0.0292,-0.0291,-0.029,-0.0263,-0.026,-0.0257,-0.0235,-0.0246,-0.0244,-0.0243,-0.0243,-0.0202,-0.0201,0,0,0,0,0,0,-0.0306,-0.0303,-0.0302,-0.0301,-0.0303,-0.0293,-0.0292,-0.0295,-0.0278,-0.0275,-0.0289,-0.0289,-0.0262,-0.0259,-0.0256,-0.0244,-0.0244,-0.0243,-0.0242,-0.0202,-0.0201,-0.0201,0,0,0,0,0,0,-0.0307,-0.0307,-0.0303,-0.0301,-0.03,-0.0293,-0.0295,-0.0294,-0.0296,-0.0276,-0.0273,-0.0293,-0.0262,-0.0258,-0.0247,-0.0243,-0.0242,-0.0241,-0.0202,-0.0202,-0.0201,-0.0218,0,0,0,0,0,0,-0.0307,-0.0307,-0.0314,-0.0302,-0.03,-0.0302,-0.0295,-0.0294,-0.0294,-0.0294,-0.0278,-0.0275,-0.0262,-0.0249,-0.0245,-0.0241,-0.0239,-0.0202,-0.0202,-0.0201,-0.0218,-0.0218,-0.0219,0,0,0,0,0,-0.0307,-0.0316,-0.0314,-0.0314,-0.0309,-0.0302,-0.0301,-0.0295,-0.0294,-0.0297,-0.0284,-0.0275,-0.0244,-0.0248,-0.0243,-0.0238,-0.0202,-0.0202,-0.0201,-0.0218,-0.0218,-0.0219,0,0,0,0,0,0,-0.032,-0.0316,-0.0314,-0.0321,-0.0315,-0.0301,-0.0305,-0.0299,-0.0292,-0.0294,-0.0274,-0.027,-0.0259,-0.0246,-0.0251,-0.0225,-0.0221,-0.0219,-0.0235,-0.0235,-0.0236,-0.0239,-0.0238,0,0,0,0,0,-0.0326,-0.0333,-0.0323,-0.033,-0.0328,-0.0317,-0.0315,-0.0311,-0.0301,-0.0299,-0.0286,-0.0269,-0.0252,-0.0243,-0.0229,-0.0215,-0.0193,-0.0208,-0.0208,-0.0209,-0.0208,-0.0169,-0.0166,-0.02,-0.02,-0.02,0,0,-0.0334,-0.0332,-0.0337,-0.0333,-0.0329,-0.0328,-0.0317,-0.0317,-0.0315,-0.0295,-0.0291,-0.0274,-0.025,-0.0235,-0.0228,-0.0224,-0.0188,-0.0208,-0.0209,-0.0208,-0.0168,-0.0165,-0.0162,-0.0199,-0.02,-0.02,0,0,-0.035,-0.0351,-0.036,-0.0356,-0.0352,-0.0343,-0.0344,-0.0333,-0.0328,-0.032,-0.0302,-0.028,-0.0263,-0.0237,-0.0223,-0.0216,-0.0194,-0.0215,-0.0218,-0.018,-0.0177,-0.0174,-0.0142,-0.0136,-0.0213,-0.0213,-0.0213,0,-0.0359,-0.037,-0.0362,-0.0367,-0.0366,-0.0351,-0.0357,-0.0346,-0.0333,-0.0324,-0.0323,-0.0279,-0.026,-0.0226,-0.0225,-0.0216,-0.0197,-0.0218,-0.018,-0.0177,-0.0173,-0.0141,-0.0134,-0.0214,-0.0213,-0.0213,-0.0213,0,-0.0378,-0.0388,-0.0393,-0.0394,-0.0391,-0.0395,-0.0378,-0.0373,-0.0364,-0.0348,-0.0321,-0.0289,-0.0261,-0.0248,-0.0236,-0.02,-0.0195,-0.0188,-0.018,-0.0171,-0.0138,-0.013,-0.0215,-0.0214,-0.0214,-0.0214,0,0,-0.0396,-0.0405,-0.0409,-0.0417,-0.0407,-0.0408,-0.04,-0.0385,-0.038,-0.0355,-0.0337,-0.0296,-0.0275,-0.0257,-0.023,-0.0194,-0.0152,-0.0185,-0.0183,-0.0156,-0.0073,-0.0082,-0.0075,-0.0142,-0.0141,-0.014,-0.006,0,-0.0415,-0.0439,-0.0432,-0.0449,-0.0458,-0.0439,-0.0433,-0.0416,-0.0396,-0.0375,-0.0325,-0.0302,-0.0278,-0.0265,-0.0224,-0.0172,-0.0133,-0.0174,-0.0084,-0.0081,-0.0092,-0.0067,-0.0136,-0.0054,-0.0053,-0.0051,-0.005,0,-0.0434,-0.0449,-0.0475,-0.0481,-0.0482,-0.0488,-0.0476,-0.0468,-0.0426,-0.0408,-0.0366,-0.033,-0.0269,-0.0256,-0.0151,-0.0182,-0.013,-0.0088,-0.0083,-0.0081,-0.0076,-0.0064,-0.0037,-0.0038,-0.0039,-0.004,-0.0041,0,-0.0457,-0.0476,-0.0502,-0.0505,-0.0508,-0.0514,-0.0513,-0.0484,-0.0475,-0.043,-0.0416,-0.0338,-0.0301,-0.0223,-0.0135,-0.0143,-0.0024,-0.0021,0.0024,0.0024,0.0014,0.001,0.0054,0.0054,0.0054,0.0054,0.0053,0,-0.0476,-0.0497,-0.0521,-0.0535,-0.0563,-0.0549,-0.0562,-0.0546,-0.0515,-0.0501,-0.0438,-0.0402,-0.0293,-0.0212,-0.0135,-0.0031,-0.0018,0.0031,0.0047,0.0005,-0.0001,0.002,0.0015,0.0057,0.0056,0.0055,0.0055,0,-0.0494,-0.0511,-0.0544,-0.0566,-0.0578,-0.0598,-0.0608,-0.0609,-0.0577,-0.0554,-0.0541,-0.0443,-0.0336,-0.0226,-0.0091,-0.0034,0.0065,0.0098,0.0044,0.0055,0.0088,0.0081,0.0159,0.016,0.016,0.0161,0.0161,0,-0.0504,-0.0526,-0.0576,-0.0606,-0.0622,-0.0651,-0.0668,-0.0647,-0.0638,-0.0575,-0.0558,-0.0455,-0.0382,-0.0186,-0.008,0.0074,0.009,0.0137,0.0115,0.0092,0.0101,0.0093,0.0086,0.0161,0.0161,0.0162,0.0162,0,-0.0521,-0.0546,-0.0576,-0.0642,-0.0678,-0.0707,-0.0723,-0.0716,-0.0678,-0.0655,-0.0554,-0.0449,-0.0326,-0.0179,-0.0062,0.0045,0.0104,0.0141,0.0141,0.0121,0.0095,0.0102,0.0094,0.0163,0.0163,0.0163,0.0163,0,-0.0534,-0.0565,-0.0616,-0.0666,-0.0717,-0.0742,-0.0748,-0.0719,-0.0698,-0.0616,-0.0583,-0.0445,-0.0359,-0.0194,-0.0085,0.0019,0.0042,0.0066,0.007,0.007,0.0014,-0.0033,0.0017,0,0,0,0,0,-0.0541,-0.058,-0.0635,-0.069,-0.074,-0.0763,-0.0772,-0.0763,-0.0725,-0.0655,-0.0613,-0.0492,-0.0311,-0.0225,-0.012,-0.0096,0.0042,0.0027,0.0067,0.017,0.0169,0.0116,0,0,0,0,0,0,-0.0548,-0.0604,-0.0634,-0.0696,-0.0733,-0.0777,-0.078,-0.0756,-0.0701,-0.0648,-0.0543,-0.048,-0.0299,-0.0369,-0.0121,-0.009,-0.0054,0.0117,0.0118,0.0171,0.0169,0.0168,0.0114,0,0,0,0,0]}]]